EXPRESS-AM7

Last updated on Sat Dec 13 2025 00:02:48 GMT+0000 (Coordinated Universal Time)

1 40505U 15012A 25346.21292539 .00000160 00000+0 00000+0 0 9991 2 40505 0.0173 318.9872 0003058 308.7419 290.1012 1.00268817 39137
UTC large
Height (km)
Speed (km/s)
/
Latitude / Longitude
Inclination (degrees)
Orbital Period (minutes)
Azimuth
Elevation
Range (km)
Doppler Factor

Next 0 passes for location: London (51.5072 / 0.1276)

Sorry there are no passes over London.